RH
22 20 44 58 54 53 52 42 30 35 33 30 31 48 73 69 61 76 84 78 71 58 63 68 69 67 70 77 77 77 75 77 76 70 72 76 74 76 82 80 78 72 74 79 82 75 75 88 91
19 41 67 46 54 50 42 30 32 30 30 32 44 56 67 74 72 83 80 75 54 59 67 72 78 77 81 79 68 62 66 71 72 69 73 75 73 75 78 79 79 78 84 76 72 78 88 89 86
24 52 45 57 53 44 39 23 26 36 26 29 57 63 65 71 73 74 78 75 58 67 70 78 81 81 80 64 70 62 57 60 67 76 78 75 77 82 76 71 70 72 72 71 72 82 81 81 81
47 56 42 53 47 33 24 22 34 37 35 39 55 79 68 67 69 78 82 77 63 71 73 77 76 77 76 78 72 60 53 55 71 76 76 74 73 63 61 60 62 60 56 62 72 72 68 81 90
59 41 59 51 39 26 23 22 32 37 41 55 55 75 69 66 72 79 82 70 70 75 71 72 71 72 76 77 74 66 64 73 74 80 61 63 59 63 57 50 44 44 50 57 57 71 68 86 92
54 38 41 41 35 25 19 25 31 35 65 68 68 72 76 70 71 79 78 75 77 72 75 75 74 76 80 80 77 82 79 78 81 70 58 59 59 57 52 46 42 40 52 68 69 66 71 79 87
52 59 44 29 28 24 19 29 35 37 56 70 66 88 78 69 74 76 81 79 79 76 75 76 74 81 82 83 84 82 86 85 80 77 81 74 69 54 55 53 47 45 64 55 58 65 59 69 82
43 40 37 28 25 23 14 24 29 30 46 63 53 86 84 71 74 78 79 80 81 83 79 65 67 77 84 84 88 85 97 99 98 51 52 56 54 56 58 55 57 56 58 54 52 53 53 57 66
43 48 36 32 25 18 14 15 29 35 62 54 54 61 75 68 76 78 78 87 89 92 78 73 71 74 86 93 90 96 98 82 64 60 60 58 58 58 61 60 61 59 59 62 61 59 56 63 72
44 57 36 23 20 16 17 16 34 46 55 67 56 66 73 69 76 76 83 91 93 94 87 83 82 99 98 97 96 99 82 70 65 62 61 66 62 61 58 62 66 67 65 66 65 65 66 57 69
44 42 31 20 16 14 17 32 37 46 57 59 77 80 76 74 76 76 77 86 92 88 86 92 97 98 95 96 90 74 72 70 68 62 56 61 56 58 62 68 72 74 76 72 66 66 66 62 48
44 34 27 19 14 15 23 29 44 40 46 48 51 62 77 72 76 71 77 84 88 87 84 97 98 97 98 91 82 77 68 69 70 74 77 64 74 83 81 65 76 76 73 61 54 56 53 43 50
37 36 30 26 15 12 18 31 41 45 45 53 66 80 81 74 81 74 73 75 75 76 81 86 97 94 92 88 93 88 77 71 75 67 73 71 83 88 90 81 81 83 75 66 54 42 39 33 36
39 32 29 21 18 17 23 31 31 43 55 68 70 86 86 78 79 88 83 78 74 73 81 87 98 95 85 88 90 87 82 80 70 76 94 88 85 87 81 85 78 72 67 56 49 45 38 35 35
30 33 28 22 22 22 23 33 45 60 64 93 87 85 87 84 74 80 86 82 74 78 86 90 97 96 86 83 89 89 85 86 76 72 82 79 80 84 77 75 70 63 54 50 42 37 36 33 32
35 32 34 26 29 24 27 36 38 78 85 100 97 93 84 83 87 83 76 76 78 82 86 90 85 93 94 90 90 87 85 88 91 81 92 92 89 84 73 59 56 44 40 37 36 37 38 36 40
36 43 38 28 32 33 31 35 41 80 85 98 97 88 86 86 92 87 83 78 73 77 83 86 85 88 87 89 90 86 86 87 85 91 87 92 94 89 82 77 60 48 44 43 42 41 45 47 49
46 38 29 35 30 35 39 33 48 64 83 94 94 87 85 88 86 89 88 85 80 81 82 84 88 89 91 95 93 91 91 88 88 81 86 84 87 90 90 85 58 52 48 47 48 52 54 53 48
29 34 29 32 33 35 43 36 51 53 68 94 97 86 84 86 88 87 86 86 82 85 81 85 82 83 90 93 96 92 89 87 85 82 82 84 86 91 90 93 70 58 58 54 50 53 55 52 48
26 31 25 31 33 32 46 40 48 52 64 79 92 95 92 86 85 88 81 81 82 84 85 86 90 87 90 90 94 89 86 84 86 80 79 80 86 83 91 76 70 60 58 58 55 53 52 53 52
27 26 27 37 33 27 38 35 48 46 43 61 80 86 87 86 83 80 79 79 79 79 78 84 94 89 94 97 98 94 90 89 88 81 78 81 83 86 77 73 72 62 63 58 57 58 60 58 53
27 22 32 38 41 44 29 50 56 54 51 54 64 75 77 79 75 72 73 78 76 77 77 80 94 97 98 95 100 94 88 91 80 74 74 76 88 88 79 78 71 70 67 60 56 50 45 53 50
29 33 32 33 33 32 27 42 46 57 62 57 60 64 67 67 67 67 68 70 70 72 70 74 85 99 100 100 99 95 90 84 75 74 74 83 84 85 88 79 70 73 71 62 62 54 38 39 44
26 35 40 49 45 55 29 38 31 65 53 53 51 61 60 60 59 60 63 65 68 71 72 76 81 82 90 95 98 89 86 84 77 75 78 81 79 84 89 86 72 73 70 67 65 58 39 37 38
30 37 69 64 66 51 32 29 28 39 53 45 52 56 61 57 59 60 61 64 69 74 74 73 71 75 76 84 91 90 83 83 76 75 77 79 82 82 82 84 81 74 69 72 68 60 38 34 33
36 40 62 53 73 46 31 37 23 18 22 41 37 40 53 59 61 63 63 65 68 70 73 73 69 83 81 82 87 86 80 79 78 75 72 76 80 81 79 81 84 82 75 76 72 67 52 31 24
36 36 31 42 31 34 35 28 16 18 18 25 44 45 61 58 56 59 64 66 68 69 74 78 73 77 84 85 88 85 82 83 78 75 74 76 78 81 77 78 81 81 82 74 74 71 64 56 42
34 24 36 48 47 35 43 24 24 19 18 21 35 48 46 54 60 57 58 68 70 71 72 78 81 78 78 83 86 82 80 82 78 73 73 78 76 79 77 77 80 84 82 84 77 76 70 65 61
42 41 39 40 59 64 50 37 43 46 38 23 26 33 44 48 51 59 62 61 66 72 74 76 80 82 82 82 84 85 83 81 78 74 75 79 77 75 75 80 81 83 85 87 88 81 78 69 66
36 36 41 54 41 58 60 61 58 59 61 62 66 66 60 50 52 58 68 74 73 70 72 76 81 84 86 85 85 86 84 82 79 77 74 77 81 81 79 79 79 76 79 82 87 91 80 78 70
Wind_Speed
11 18 18 9 3 4 3 8 4 3 3 10 16 18 13 8 4 6 26 19 21 25 21 20 20 20 22 22 22 22 22 20 19 18 19 18 19 20 21 22 20 21 20 20 19 22 24 25 24
18 21 11 3 4 2 5 7 8 10 13 28 23 17 15 5 17 27 26 17 24 24 23 23 22 23 25 25 21 18 19 16 17 16 17 18 19 19 18 18 19 19 19 18 21 23 25 23 21
24 17 4 4 4 6 4 4 4 5 23 18 8 17 7 9 25 20 25 20 26 25 24 23 23 24 23 19 19 17 16 18 18 18 18 19 20 19 18 17 17 18 18 19 19 21 21 21 19
21 8 4 3 9 7 4 0 12 10 17 13 22 9 14 11 19 31 24 21 27 25 25 24 23 23 23 22 20 17 18 20 19 18 18 17 17 16 17 17 16 14 14 17 18 20 20 21 18
19 6 2 4 7 4 7 8 20 6 10 18 15 7 14 15 32 28 26 19 25 27 25 24 23 23 22 22 21 18 19 20 19 17 16 17 16 17 16 16 15 15 15 16 16 18 20 21 21
7 5 4 5 6 8 2 17 24 9 21 22 22 17 10 25 31 27 26 22 22 28 27 25 23 23 23 22 21 19 19 20 18 17 18 17 16 15 15 14 14 15 16 16 16 17 18 19 17
6 4 6 6 5 7 6 18 16 13 15 8 30 6 16 27 30 26 25 23 22 27 28 26 23 22 21 20 18 18 19 19 19 20 19 17 15 14 14 15 15 15 16 15 18 18 18 19 18
5 4 8 7 7 9 7 15 30 26 6 34 31 9 18 34 32 26 23 23 25 27 26 24 23 23 22 20 19 17 19 19 19 19 17 16 15 14 14 13 14 14 14 15 17 17 18 20 18
15 3 8 9 9 10 10 7 13 22 29 9 8 30 39 37 32 29 26 26 27 25 25 24 24 23 23 23 20 19 17 17 16 16 16 16 14 13 13 13 13 13 13 14 15 16 17 17 16
8 4 8 6 6 3 11 17 16 17 16 14 23 25 40 39 35 32 32 30 29 26 24 24 23 26 26 23 21 19 17 19 17 14 12 12 13 13 12 13 12 13 12 13 13 13 14 14 12
11 7 4 12 20 1 7 11 13 26 5 27 38 48 44 42 36 34 31 32 31 27 23 23 25 25 24 23 19 18 19 18 16 12 11 11 13 12 11 12 12 12 12 10 9 9 9 9 11
8 8 17 5 4 6 6 11 9 26 10 31 39 52 51 46 39 37 33 34 32 27 22 24 24 24 22 19 18 17 17 15 13 12 10 12 13 12 10 12 11 10 9 8 9 9 9 9 10
4 10 14 10 6 4 1 9 9 15 30 30 39 43 44 43 38 35 34 30 28 25 24 22 26 22 22 17 17 15 11 12 12 12 13 10 11 11 8 7 9 8 8 8 8 8 9 10 10
12 16 12 7 5 4 3 5 13 11 35 36 40 43 40 36 42 34 34 34 30 28 27 27 26 24 21 17 16 16 10 10 9 14 11 9 14 12 10 10 9 10 8 8 7 7 7 8 7
15 5 3 4 6 4 7 5 7 26 41 39 39 42 37 30 37 39 35 31 30 30 28 27 26 26 23 19 19 17 12 8 10 13 12 9 11 10 11 10 8 7 8 7 8 8 8 8 8
9 6 8 5 8 2 5 5 5 37 38 31 34 35 33 32 35 35 36 35 30 30 28 27 22 26 24 24 20 18 16 12 10 10 13 12 10 8 8 8 7 8 8 8 8 8 8 7 7
5 9 6 4 7 5 4 4 5 31 36 28 31 32 31 31 34 34 34 35 37 31 28 27 27 25 25 23 22 19 17 13 12 9 15 13 11 8 6 6 6 9 8 8 8 8 8 7 7
11 12 12 9 7 5 4 5 7 27 29 31 32 30 31 32 36 37 35 32 34 32 29 29 27 25 26 26 23 21 19 15 13 10 8 14 12 11 8 8 7 8 8 9 9 8 7 7 8
12 8 8 4 6 6 7 4 8 19 22 22 26 31 31 34 36 37 39 34 36 34 33 30 30 27 28 28 26 23 22 19 17 14 11 10 13 14 12 10 7 9 8 8 8 8 8 9 9
11 11 4 4 8 6 7 6 7 8 18 32 33 32 34 32 39 33 38 41 39 37 34 36 34 32 29 28 27 26 25 22 21 18 14 11 13 14 14 9 10 10 9 8 7 8 10 11 12
9 16 8 9 5 5 7 1 5 5 9 23 26 30 33 39 43 37 42 41 38 40 39 36 37 35 32 28 27 28 26 24 27 24 20 17 14 12 14 12 12 11 9 9 9 10 10 11 14
9 9 11 14 6 6 4 4 6 8 8 11 25 33 36 39 39 42 45 45 41 39 34 31 38 37 35 31 33 31 31 31 28 25 22 21 18 16 14 13 12 11 10 10 9 10 11 12 13
4 14 14 8 7 7 3 5 5 10 9 8 15 33 37 42 43 44 47 45 41 38 35 30 32 38 39 36 35 33 31 28 26 24 23 23 21 19 17 13 13 13 11 10 10 10 11 12 13
1 11 8 5 5 2 5 5 4 12 14 8 8 27 40 42 43 42 41 43 42 39 36 34 30 31 36 40 39 35 31 29 30 27 26 26 24 24 22 16 14 13 13 12 11 10 11 11 12
12 10 3 3 2 5 5 4 6 8 10 16 13 29 37 44 44 45 44 43 43 41 38 38 35 34 36 40 40 37 33 30 31 29 29 29 27 29 26 21 18 16 14 14 12 10 11 12 13
10 5 5 6 5 4 5 5 5 9 15 22 37 36 43 44 42 43 44 44 45 44 42 40 39 39 39 40 40 38 35 31 32 29 31 29 29 29 26 23 21 19 16 15 15 13 12 13 13
6 3 5 6 2 4 3 4 4 5 5 11 25 20 26 43 45 44 44 47 47 46 44 43 42 42 41 42 41 39 35 34 33 32 29 27 26 29 26 26 25 21 20 18 18 18 16 14 14
2 2 2 3 5 5 2 4 4 4 6 6 7 22 31 32 37 38 42 44 44 46 45 43 43 43 43 43 41 39 38 36 34 35 32 30 29 26 27 28 27 24 22 22 21 21 21 20 18
3 2 2 2 4 4 4 3 10 7 6 5 4 5 12 28 30 30 33 36 39 40 41 44 45 44 43 44 42 41 41 39 37 39 37 36 33 30 28 27 28 27 26 25 26 25 24 24 22
3 4 6 4 2 1 4 0 8 10 14 21 21 25 28 21 18 12 11 22 31 34 35 36 39 43 43 41 44 44 43 41 40 41 41 40 40 37 32 30 30 27 26 25 27 30 28 29 28
Wind_Direction
178 154 153 139 91 79 230 244 171 308 69 79 83 97 105 54 67 139 147 168 166 151 146 137 136 136 134 127 123 119 117 116 116 113 112 116 112 109 107 106 108 108 106 108 105 107 107 105 102
168 157 153 164 110 158 251 247 228 202 152 103 88 98 55 59 100 129 145 165 155 149 144 136 137 136 132 128 123 116 116 116 114 117 117 113 111 110 110 108 107 104 104 102 107 110 110 108 104
165 151 169 146 162 200 211 204 169 176 125 108 104 74 79 105 123 136 149 146 153 144 139 135 138 138 137 139 132 135 130 136 130 124 117 112 111 114 110 108 106 107 106 104 106 109 109 108 101
158 168 237 147 214 233 209 145 125 120 102 94 102 71 101 139 136 142 146 149 148 141 139 138 138 135 133 132 129 131 130 137 128 121 119 121 118 113 108 104 105 105 104 106 108 110 110 108 97
165 153 159 210 234 242 235 222 148 142 96 106 96 110 108 140 137 140 148 151 146 142 140 140 141 139 138 132 130 129 135 135 133 127 122 121 117 109 106 104 103 104 104 103 109 111 114 113 103
168 186 139 201 225 239 245 190 145 117 110 107 104 106 101 143 146 146 148 151 149 144 141 140 140 139 137 133 130 131 136 139 135 132 128 124 119 114 110 107 105 104 103 101 107 114 114 118 118
171 136 178 185 217 264 200 173 146 149 133 128 134 104 132 153 150 148 149 152 155 149 144 142 142 140 134 128 126 131 126 129 131 131 126 122 120 117 114 110 107 105 103 99 98 106 108 114 117
216 127 165 193 193 236 190 181 164 157 126 142 137 152 158 155 154 152 157 157 158 152 149 146 149 149 144 138 133 135 137 134 131 133 134 130 125 117 112 109 107 107 104 100 101 106 106 110 111
208 132 191 179 170 234 180 158 162 146 138 138 162 157 157 152 153 156 160 151 153 151 152 150 151 150 141 141 144 143 141 136 125 122 124 122 121 120 116 115 114 112 109 106 105 107 107 117 115
188 152 194 190 187 184 192 156 125 126 129 102 123 146 153 156 158 160 161 154 155 153 154 157 156 145 144 145 147 144 138 133 131 131 127 119 120 125 127 123 119 114 112 113 115 117 120 124 121
170 190 206 218 229 281 279 142 126 131 128 147 141 149 157 160 162 163 163 160 158 156 160 165 155 150 151 147 150 141 142 140 137 138 127 122 127 126 127 125 123 121 120 122 121 123 114 106 114
153 204 208 198 141 161 193 159 109 151 158 162 156 160 161 164 167 168 167 164 163 165 172 162 156 157 152 146 146 143 145 151 144 138 143 140 133 122 127 132 130 123 122 118 110 127 133 128 126
172 201 223 234 150 202 326 158 146 128 150 154 156 159 164 165 167 171 170 167 168 170 178 174 162 160 152 157 153 156 152 155 154 150 149 151 140 141 140 136 134 134 137 144 132 129 125 132 134
185 192 213 182 168 134 114 139 127 128 156 155 159 162 163 169 171 166 169 172 178 178 181 175 167 163 156 162 157 163 157 153 155 152 152 159 167 173 173 162 160 164 165 152 154 143 141 131 134
166 130 180 232 167 162 140 74 141 142 157 149 158 166 164 173 179 177 169 173 179 179 181 179 179 163 168 162 160 164 161 176 158 162 167 162 173 175 179 181 178 176 166 165 152 148 142 144 141
130 129 166 249 148 217 124 185 118 146 144 148 156 162 168 179 179 180 178 181 183 181 182 181 178 172 169 166 165 165 173 172 169 161 156 159 162 170 176 176 165 169 165 162 157 155 155 156 144
150 167 152 177 175 121 102 169 156 154 147 150 158 164 172 179 183 183 182 187 187 190 185 186 181 180 179 178 174 174 179 174 177 177 177 173 172 183 183 182 180 173 170 167 170 167 164 164 155
170 161 168 152 200 76 105 139 162 159 154 159 163 167 177 182 185 187 188 188 191 188 190 191 187 187 187 178 179 179 176 179 180 190 179 189 184 164 176 178 174 171 174 176 171 181 170 167 160
119 114 101 104 147 107 171 143 188 158 153 151 161 169 184 187 188 190 194 189 197 195 195 192 192 193 193 189 181 185 185 179 183 185 186 195 192 175 183 200 196 183 180 186 180 180 184 183 167
141 146 137 81 130 97 157 205 198 161 172 169 172 176 183 184 193 195 196 199 201 199 196 198 194 198 199 197 193 193 192 197 191 184 195 203 191 195 202 205 205 202 199 200 203 198 190 192 180
182 165 160 144 126 45 112 318 190 214 163 181 180 181 185 188 191 193 196 198 200 201 202 206 201 200 201 199 200 196 203 199 196 200 200 203 201 215 216 219 211 207 209 212 211 215 206 208 201
155 161 137 134 108 165 139 218 220 185 198 166 171 180 188 192 194 195 197 200 201 203 203 209 204 201 198 203 204 206 203 202 207 204 210 209 207 213 229 215 217 217 219 217 217 223 222 212 213
175 126 148 133 118 114 152 91 254 173 211 199 181 184 188 194 192 195 196 201 203 200 207 207 208 207 202 204 210 213 215 219 218 208 217 207 211 215 228 227 220 217 222 222 225 226 227 221 213
21 98 65 57 89 87 211 128 248 190 186 201 178 192 189 193 196 199 198 202 205 204 206 204 210 209 207 207 215 220 223 222 215 213 218 213 214 212 223 237 226 223 225 224 228 231 227 225 219
125 118 103 80 34 203 200 164 226 190 187 195 194 194 191 194 198 199 203 203 204 206 209 215 213 208 208 211 217 221 227 227 223 221 219 214 217 220 220 230 232 226 229 227 227 230 227 227 227
148 129 136 161 155 196 117 211 230 197 209 207 200 197 196 192 195 199 205 209 210 212 215 214 212 210 212 214 219 225 229 227 225 225 220 222 222 226 226 227 236 231 230 228 228 230 229 224 222
205 170 169 107 94 95 195 263 339 97 119 204 210 205 194 199 202 205 207 211 213 215 216 216 216 217 217 220 222 227 228 226 225 224 224 227 224 228 229 227 235 234 231 230 231 232 233 229 226
139 141 74 23 151 174 337 158 205 234 171 126 147 198 204 206 210 212 213 213 217 217 219 220 222 223 223 225 227 231 232 229 229 225 225 222 226 223 225 226 232 237 235 233 233 234 234 233 234
82 171 356 125 135 145 117 244 343 329 350 202 95 73 199 207 210 217 220 222 223 225 226 227 227 228 230 228 231 234 235 233 230 226 228 229 231 225 224 226 229 235 237 236 236 237 238 238 239
223 167 180 135 246 117 121 48 354 16 34 62 55 59 78 88 93 134 175 208 217 227 233 235 235 235 236 236 234 236 238 236 232 230 232 232 233 235 234 232 227 236 241 245 241 240 239 239 239